Helicity
144 190 170 141 147 159 133 140 152 162 141 138 127 153 155 164 167 157 154 131 113 93 76 81 66 53 59 58 62 50 55 63 67 76 74 59 46 39 39 44 8 43 57
191 204 175 143 156 173 135 121 141 140 127 133 126 133 134 176 162 175 145 146 152 183 221 184 146 110 89 70 66 65 63 67 68 61 44 34 50 42 38 49 58 40 56
187 217 227 203 194 185 151 108 122 129 117 129 141 121 117 138 138 148 162 160 161 170 170 176 150 138 154 107 96 83 65 65 73 47 32 36 44 47 43 39 31 32 32
197 225 241 258 199 169 161 147 122 143 143 130 150 114 121 124 143 133 144 144 136 158 135 140 125 130 140 127 102 70 51 62 68 57 17 23 36 54 45 39 36 34 30
254 295 256 230 175 162 183 177 158 138 128 136 173 172 152 139 154 151 130 134 132 128 131 139 134 142 141 121 97 89 80 98 72 49 42 26 17 43 61 56 41 39 55
283 293 241 225 167 158 171 181 162 134 114 129 145 174 148 144 137 138 142 121 115 129 137 124 121 121 130 123 112 118 115 118 78 68 57 62 31 26 42 63 73 63 56
304 275 212 193 200 134 163 194 176 144 115 151 164 136 134 121 121 117 123 119 120 117 134 110 142 137 142 152 145 151 165 170 104 98 84 108 97 52 26 30 50 72 76
323 362 265 177 187 139 154 203 201 189 158 186 200 183 170 146 133 116 121 112 106 105 121 116 134 150 158 157 171 190 197 179 148 143 113 138 181 130 64 48 43 42 61
351 370 392 324 209 188 195 233 225 190 246 277 279 283 252 207 171 154 141 122 114 102 100 114 129 152 161 167 190 217 219 205 171 205 137 163 207 161 132 108 66 66 53
354 394 411 417 403 326 302 272 249 234 280 302 309 314 265 237 181 163 138 154 130 120 116 105 106 143 170 182 208 239 230 227 176 188 181 208 200 150 152 145 115 89 87
347 369 405 448 458 313 253 229 189 201 221 208 185 187 155 160 172 172 178 161 142 121 111 108 131 141 139 178 252 254 231 211 201 186 143 235 192 154 137 137 129 112 104
307 359 394 406 399 345 261 251 218 193 212 208 179 161 137 139 150 135 139 143 137 116 107 106 138 168 156 171 190 235 209 202 200 188 176 229 186 159 146 139 142 126 99
260 328 342 344 293 251 228 212 213 209 202 200 187 172 142 135 131 126 117 119 124 136 121 121 116 132 183 192 196 195 196 193 194 184 189 210 170 160 139 143 142 128 119
204 261 311 323 284 252 246 234 204 202 203 192 185 175 161 151 140 137 130 131 127 126 142 159 144 142 145 176 202 203 195 196 190 200 212 277 226 144 108 114 112 113 102
199 266 305 324 318 285 243 221 204 191 193 192 189 186 168 155 148 138 133 129 123 124 123 119 141 147 143 153 159 168 181 199 205 204 198 340 355 387 397 441 363 283 298
218 269 314 319 305 277 249 217 225 213 199 197 191 179 167 153 139 137 139 135 131 136 126 122 102 94 122 134 140 148 144 158 180 187 203 273 463 454 486 504 503 532 496
225 270 299 301 283 265 240 232 219 218 205 196 188 172 161 139 116 90 69 62 79 105 127 129 140 117 85 95 115 125 146 157 156 175 177 188 220 339 383 481 520 498 495
244 279 291 302 278 271 266 262 252 229 226 213 189 172 158 148 140 137 140 145 137 120 106 115 125 122 128 132 132 148 146 146 170 176 173 180 186 172 174 268 320 371 461
233 263 306 305 290 281 273 269 256 240 227 213 192 172 158 152 142 134 130 126 121 122 127 121 125 133 121 111 109 123 146 151 164 166 180 188 188 182 162 162 209 256 287
225 270 298 309 299 302 308 300 293 275 250 212 193 174 156 155 139 125 113 110 108 111 114 119 119 126 128 124 111 113 130 144 146 164 168 177 183 190 184 179 162 163 217
211 255 312 337 328 346 344 334 306 266 245 226 206 182 173 159 151 145 139 134 134 138 139 129 120 134 136 119 97 105 101 120 123 137 142 151 166 159 174 177 176 177 172
225 263 296 304 316 317 291 275 254 247 239 216 193 175 160 147 151 150 144 147 148 146 157 175 179 153 152 176 152 123 110 109 109 118 118 124 145 148 148 165 170 175 177
222 260 305 329 311 291 284 298 270 267 257 238 205 197 179 145 129 120 126 132 139 146 162 173 180 201 211 180 203 218 177 195 124 101 109 120 143 134 124 144 155 164 178
203 240 277 306 296 274 236 223 196 208 187 171 170 162 151 129 115 104 102 100 106 110 119 135 143 160 180 219 177 191 192 204 224 150 101 107 135 138 128 126 117 133 160
225 244 253 259 254 236 212 185 196 201 199 175 170 150 144 119 102 90 80 74 75 76 81 90 97 108 118 144 166 174 182 185 178 197 189 143 138 125 133 141 115 101 120
162 195 229 251 232 200 185 166 170 170 167 160 142 140 136 121 105 80 73 70 63 68 62 67 77 84 87 86 87 92 115 147 159 168 176 176 177 162 169 130 123 123 100
Wind_Speed
15 18 15 18 20 22 26 25 25 24 24 22 23 22 21 23 25 25 26 24 21 21 20 20 20 21 22 17 21 22 21 21 21 22 21 20 21 21 19 17 19 18 16
15 14 13 17 17 20 25 26 23 21 21 22 23 22 21 22 21 20 20 21 23 23 27 26 24 20 24 23 18 21 21 19 20 20 21 22 21 21 19 17 18 18 16
14 9 9 16 17 18 22 21 24 19 19 22 21 22 21 20 20 19 19 22 23 20 21 23 23 23 23 25 24 20 20 20 20 20 20 21 20 21 20 18 17 17 18
9 7 10 12 11 12 15 15 19 21 20 21 21 21 22 22 20 17 18 20 22 20 19 19 21 21 23 23 22 21 18 21 21 23 23 21 21 20 20 19 19 18 18
8 10 6 8 7 7 9 10 12 14 17 18 18 20 22 22 20 19 19 20 22 22 21 22 23 24 23 24 21 20 19 20 22 23 23 22 21 20 20 20 20 20 19
11 10 3 4 5 4 7 6 8 11 13 17 16 16 18 20 21 20 19 20 22 23 24 24 25 25 24 24 22 21 21 21 22 23 24 24 22 20 21 21 21 21 19
11 8 2 2 3 4 3 5 6 8 11 14 16 16 16 19 20 21 21 21 22 22 23 25 26 27 25 24 24 23 23 22 21 22 25 26 24 22 23 22 22 22 21
10 12 6 4 4 3 3 5 7 8 11 12 13 14 17 19 20 21 21 22 23 23 24 26 26 27 26 26 25 24 24 23 21 22 25 25 25 24 23 22 23 23 23
13 10 11 6 2 2 3 6 8 9 10 11 13 15 17 19 20 21 22 23 24 24 25 27 27 29 27 27 26 23 23 22 23 26 24 26 27 25 25 23 22 22 22
16 13 11 9 5 3 6 6 7 10 11 13 16 17 17 19 20 23 24 26 26 28 28 29 29 28 28 27 27 24 25 24 26 26 29 29 29 28 26 26 24 23 23
17 15 12 10 7 4 6 8 9 10 11 13 15 18 21 23 24 25 25 25 27 28 29 29 30 31 30 29 28 28 27 27 27 31 32 34 33 31 30 28 28 26 25
20 19 15 12 10 9 10 11 14 15 19 19 20 22 24 25 25 24 25 27 29 29 30 31 31 33 34 34 33 32 31 30 28 29 31 37 36 34 33 31 30 29 28
21 20 18 16 14 15 15 16 20 22 22 23 23 24 23 25 27 29 30 32 33 34 35 36 36 36 35 35 34 34 34 33 32 33 36 34 33 32 31 30 31 31 30
23 22 20 19 19 19 19 21 21 22 24 25 25 25 27 27 27 28 30 33 34 36 37 37 37 36 35 34 35 34 34 34 33 33 34 36 34 30 32 31 31 33 33
27 25 25 23 23 21 21 21 22 22 24 23 25 27 28 28 29 30 31 32 34 36 37 37 36 36 35 35 34 33 34 32 31 31 31 34 34 30 29 30 29 25 26
30 30 28 27 25 23 24 22 23 22 21 24 25 26 27 28 29 31 33 34 35 36 36 36 36 36 35 34 33 32 32 31 30 29 32 33 33 32 33 35 33 32 33
33 30 30 29 25 25 23 22 22 23 23 24 24 25 26 27 28 30 32 34 35 36 36 37 36 36 35 35 33 32 32 32 31 32 33 34 35 34 37 39 38 39 39
34 34 31 30 29 27 26 24 22 21 23 24 24 25 26 28 29 31 34 36 36 36 37 37 39 38 38 38 37 37 34 32 32 33 33 35 37 38 38 39 41 42 42
34 33 32 31 30 28 25 25 24 24 25 25 25 27 27 29 30 32 34 35 35 37 37 38 38 38 37 37 35 34 35 35 34 33 34 36 37 38 40 40 40 41 43
32 32 31 31 30 27 26 25 26 27 28 28 28 29 29 31 31 33 34 35 37 37 38 38 39 38 38 37 35 35 35 36 36 36 36 37 39 41 42 43 43 43 44
34 34 34 33 32 30 30 30 31 32 31 30 29 27 29 31 33 35 36 37 38 39 39 40 40 40 40 39 38 39 39 39 40 40 39 39 40 42 43 44 45 45 46
35 36 36 35 33 33 32 31 31 30 32 31 29 29 30 32 34 35 36 38 39 40 40 42 43 43 41 42 45 45 50 47 45 44 44 44 44 44 45 45 47 47 47
38 38 38 37 35 34 32 31 30 31 30 33 32 32 31 32 34 34 35 36 38 40 42 43 44 45 46 44 43 49 53 57 50 46 45 46 48 48 49 49 47 47 47
35 35 36 36 36 35 33 33 33 36 37 36 34 33 30 31 33 34 35 36 38 40 41 42 43 44 46 48 47 46 46 50 57 57 48 48 50 51 52 53 52 49 49
29 31 33 35 36 35 35 35 34 36 36 34 34 31 32 32 33 34 35 36 37 39 40 41 41 43 45 47 49 50 50 51 52 58 63 57 55 53 54 57 54 52 51
23 25 28 32 34 35 36 36 37 37 35 33 34 35 34 34 34 35 36 38 37 38 40 41 42 44 46 48 49 50 52 55 57 59 64 66 68 61 62 56 56 55 53
Wind_Direction
103 97 76 87 70 56 58 50 35 20 10 3 5 9 2 9 16 21 28 23 14 5 5 4 11 17 20 359 9 11 7 6 8 9 3 1 9 8 358 341 7 11 8
110 96 86 98 80 67 72 68 45 24 5 4 4 3 357 1 1 0 8 13 16 13 19 17 10 2 27 20 351 3 359 353 353 354 359 12 5 359 353 339 353 359 352
98 72 67 101 92 77 72 64 52 26 4 3 355 358 355 358 353 354 356 10 8 353 359 4 4 7 11 18 18 350 356 352 340 337 330 351 352 351 347 337 343 350 350
67 39 86 103 92 86 70 55 55 52 29 14 7 358 3 5 3 352 349 352 353 342 338 345 342 342 356 1 358 0 342 356 347 322 336 339 347 336 341 343 340 328 333
338 330 72 88 98 75 67 57 48 42 29 13 1 3 7 5 358 349 338 333 330 331 324 322 319 325 332 336 335 345 336 335 343 335 331 336 338 337 332 331 338 325 313
308 322 68 62 55 83 72 47 28 28 25 16 3 6 5 360 4 351 339 331 327 325 325 329 323 320 327 327 321 329 328 331 340 345 338 331 322 336 326 321 329 325 318
300 319 359 36 57 82 52 23 9 9 19 15 16 8 9 7 360 353 340 329 327 327 325 319 320 324 324 324 324 322 320 320 335 343 335 338 341 332 320 312 316 317 315
295 298 323 76 85 81 31 356 345 340 346 10 10 11 7 358 352 348 339 345 328 322 318 314 320 323 326 321 316 316 318 314 323 331 330 332 334 337 327 313 312 308 306
287 282 289 301 78 63 4 340 344 344 336 340 347 352 352 351 344 334 339 342 325 335 325 313 326 315 326 321 312 314 316 316 317 318 321 319 320 317 317 324 323 320 316
278 274 273 279 293 307 323 322 334 333 330 328 325 329 340 346 340 331 329 322 319 318 324 318 318 324 322 328 311 310 303 309 308 308 303 300 304 306 308 311 320 325 319
269 267 262 254 252 260 306 301 313 317 321 327 326 318 317 319 323 327 325 325 321 320 321 322 319 312 310 317 314 306 309 309 310 297 292 290 293 291 292 296 300 310 318
251 255 254 245 242 263 281 286 292 295 300 304 308 310 313 313 316 322 324 322 318 319 317 317 318 312 305 304 305 304 304 302 306 311 317 292 293 294 290 297 299 299 303
240 249 248 248 248 258 267 276 283 286 291 296 299 303 307 310 310 309 308 310 309 309 308 308 309 309 308 302 303 302 299 299 298 298 301 308 310 309 308 308 303 304 307
226 235 242 248 252 261 268 275 280 284 286 289 293 297 299 303 306 308 308 307 307 307 306 308 307 306 307 307 303 301 299 297 295 295 302 299 298 310 306 301 303 304 303
236 239 244 248 252 255 263 271 276 281 285 289 291 295 296 299 301 304 306 308 308 307 304 305 306 305 304 303 305 301 300 299 297 295 300 302 298 303 309 316 311 315 317
240 241 244 249 251 253 262 266 274 280 284 289 292 295 298 298 299 301 302 305 306 307 307 306 305 305 305 305 303 303 301 300 301 296 295 298 302 301 301 304 304 304 303
244 242 244 246 249 251 256 262 270 275 281 286 292 296 299 300 301 300 301 302 304 307 307 306 305 304 301 301 301 301 301 299 298 297 294 293 295 303 298 297 299 299 299
245 242 242 247 247 251 256 261 267 272 279 284 289 294 297 299 301 302 301 302 305 306 305 305 302 301 299 298 297 296 298 298 299 297 296 295 294 293 299 299 298 296 296
243 238 239 242 243 248 252 260 265 269 277 281 286 290 293 297 300 300 301 303 306 305 305 303 304 302 300 299 297 297 296 293 294 295 295 295 296 296 294 297 298 300 297
245 239 237 240 240 244 249 257 264 269 275 279 283 286 289 293 297 298 300 301 303 303 303 303 302 303 300 298 297 296 296 294 293 294 295 296 295 295 295 294 294 295 298
247 240 237 238 238 242 248 251 257 262 268 275 281 285 289 292 294 296 298 300 301 301 303 303 301 300 301 297 293 293 292 292 290 290 293 294 297 296 296 295 295 294 294
243 238 237 237 236 244 250 256 261 264 270 273 276 282 288 291 294 296 297 299 300 300 301 302 301 298 300 301 290 287 283 286 287 288 288 289 292 296 295 297 297 295 294
247 240 237 236 236 243 248 257 262 269 271 273 273 279 286 291 294 295 297 300 301 301 300 300 301 298 294 297 299 289 283 280 285 287 287 288 290 292 294 296 298 297 295
252 246 241 238 237 243 245 253 253 262 264 269 272 278 284 289 292 295 298 299 300 300 300 301 301 299 297 293 294 296 293 290 282 282 286 288 291 292 293 295 293 294 295
257 247 241 238 239 243 247 253 254 263 269 270 273 273 281 287 291 294 296 298 299 300 300 301 301 298 297 294 293 292 291 291 290 284 281 285 290 291 293 294 293 292 293
261 247 238 234 239 242 246 251 257 260 264 265 270 274 279 285 288 291 295 297 299 300 299 299 300 298 295 294 293 292 290 288 287 286 284 286 286 290 293 292 291 290 291